Location: Squirrel Cove
(50.1074°N, 124.9139°W)
Time: 12:08:53
(UTC-07:00)

BlueWalker 3 - Visible Passes

Search period start: 24 March 2023 00:00
Search period end: 03 April 2023 00:00
Orbit: 497 x 515 km, 53.2° (Epoch: 24 March)

Date Brightness Start Highest point End Pass type
(mag) Time Alt. Az. Time Alt. Az. Time Alt. Az.
24 Mar 4.0 05:19:53 15° S 05:19:53 15° S 05:20:50 10° SSE visible
26 Mar 3.7 21:40:44 10° SSW 21:42:14 20° S 21:42:14 20° S visible
27 Mar 2.6 21:20:56 10° SSW 21:24:26 32° SE 21:24:29 32° SE visible
27 Mar 4.7 22:58:55 10° WSW 22:59:18 12° WSW 22:59:18 12° WSW visible
28 Mar 2.7 21:01:05 10° SSW 21:04:37 33° SE 21:06:25 22° E visible
28 Mar 3.5 22:39:07 10° WSW 22:41:12 30° W 22:41:12 30° W visible
29 Mar 2.7 20:41:13 10° SSW 20:44:47 34° SE 20:48:04 12° E visible
29 Mar 2.2 22:19:17 10° WSW 22:22:50 67° WNW 22:22:50 67° WNW visible
30 Mar 2.7 20:21:19 10° SSW 20:24:54 35° SE 20:28:29 10° ENE visible
30 Mar 2.1 21:59:25 10° WSW 22:03:19 72° NNW 22:04:12 50° NE visible
30 Mar 4.8 23:38:22 10° WNW 23:38:58 14° WNW 23:38:58 14° WNW visible
31 Mar 2.1 21:39:32 10° WSW 21:43:25 71° NNW 21:45:24 27° ENE visible
31 Mar 4.2 23:18:28 10° WNW 23:20:09 23° WNW 23:20:09 23° WNW visible
01 Apr 2.2 21:19:35 10° W 21:23:29 70° NNW 21:26:26 17° ENE visible
01 Apr 3.4 22:58:32 10° WNW 23:01:11 37° NW 23:01:11 37° NW visible
02 Apr 2.2 20:59:37 10° W 21:03:32 69° NNW 21:07:21 10° ENE visible
02 Apr 2.6 22:38:34 10° WNW 22:42:05 52° NNW 22:42:05 52° NNW visible
